Weather reports worldwide

Advertisment
Ontario, or, United States of America (2074747): temperature & dewpoint: 13.05.2019 13:00:00 - 19.05.2019 13:00:00 (MDT)Ontario, or, United States of America (2074747): wind speed & gusts: 13.05.2019 13:00:00 - 19.05.2019 13:00:00 (MDT)Ontario, or, United States of America (2074747): wind direction: 13.05.2019 13:00:00 - 19.05.2019 13:00:00 (MDT)Ontario, or, United States of America (2074747): reduced air pressure: 13.05.2019 13:00:00 - 19.05.2019 13:00:00 (MDT)Ontario, or, United States of America (2074747): visibility: 13.05.2019 13:00:00 - 19.05.2019 13:00:00 (MDT)Ontario, or, United States of America (2074747): precipitation: 13.05.2019 13:00:00 - 19.05.2019 13:00:00 (MDT)
Date & Time tt [°C] td [°C] ff [km/h] ff [kn] fx [km/h] fx [kn] dd ppp [hPa] vv [km] rr [mm]
19.05.2019 13:00:00 13,9 10,0 0 0 - - N 1002,8 16 0,3
19.05.2019 12:00:00 13,9 9,4 0 0 - - N 1002,9 16 0,3
19.05.2019 11:00:00 13,3 9,4 5 3 - - NNE 1003,2 16 0,3
19.05.2019 10:00:00 12,8 10,0 8 4 - - N 1003,2 16 0,5
19.05.2019 09:00:00 12,2 8,9 5 3 - - N 1003,5 11 0,3
19.05.2019 08:00:00 11,7 9,4 0 0 - - N 1003,7 16 0,0
19.05.2019 07:00:00 11,7 8,9 8 4 - - W 1003,8 16 1,0
19.05.2019 06:00:00 11,1 8,9 13 7 - - W 1004,4 16 0,5
19.05.2019 05:00:00 11,7 8,9 9 5 - - WSW 1004,8 16 -
19.05.2019 04:00:00 11,7 8,9 5 3 - - NNW 1005,4 16 -
19.05.2019 03:00:00 12,8 8,3 0 0 - - N 1005,9 16 0,0
19.05.2019 02:00:00 12,2 7,8 8 4 - - NNE 1006,1 16 0,0
19.05.2019 01:00:00 12,2 8,3 18 10 - - W 1006,5 16 0,3
19.05.2019 00:00:00 13,3 7,8 24 13 - - WSW 1006,9 16 0,0
18.05.2019 23:00:00 15,6 6,1 21 11 - - W 1006,0 16 -
18.05.2019 22:00:00 18,3 7,8 0 0 - - N 1005,7 16 -
18.05.2019 21:00:00 17,2 6,1 0 0 - - N 1006,1 16 -
18.05.2019 20:00:00 18,9 2,8 5 3 - - SE 1006,4 16 -
18.05.2019 19:00:00 20,0 2,2 5 3 - - - 1006,9 16 -
18.05.2019 18:00:00 20,6 2,8 9 5 - - SE 1007,5 16 -
18.05.2019 17:00:00 20,6 2,2 8 4 - - W 1008,6 16 -
18.05.2019 16:00:00 20,6 3,9 9 5 - - ENE 1009,7 16 -
18.05.2019 15:00:00 19,4 3,9 0 0 - - N 1010,5 16 -
18.05.2019 14:00:00 17,8 4,4 0 0 - - N 1011,2 16 -
18.05.2019 13:00:00 18,3 5,0 8 4 - - - 1011,8 16 -
18.05.2019 12:00:00 16,7 3,9 8 4 - - - 1012,4 16 -
18.05.2019 11:00:00 15,6 6,1 13 7 - - WSW 1013,2 16 -
18.05.2019 10:00:00 13,3 6,1 13 7 - - SW 1013,6 16 -
18.05.2019 09:00:00 11,1 6,1 16 9 - - WSW 1013,9 16 -
18.05.2019 08:00:00 8,3 5,0 11 6 - - W 1014,0 16 -
18.05.2019 07:00:00 6,7 4,4 8 4 - - WSW 1013,8 16 -
18.05.2019 06:00:00 7,2 5,0 8 4 - - WNW 1013,9 16 -
18.05.2019 05:00:00 7,8 5,6 0 0 - - N 1013,8 16 -
18.05.2019 04:00:00 8,9 6,7 11 6 - - W 1013,7 16 -
18.05.2019 03:00:00 8,9 6,7 9 5 - - WSW 1013,7 16 -
18.05.2019 02:00:00 9,4 7,2 0 0 - - N 1013,7 16 -
18.05.2019 01:00:00 10,0 7,2 0 0 - - N 1013,1 16 -
18.05.2019 00:00:00 10,6 8,3 8 4 - - WSW 1012,8 16 -
17.05.2019 23:00:00 11,7 9,4 8 4 - - S 1012,7 16 -
17.05.2019 22:00:00 12,2 9,4 8 4 - - SSE 1012,4 16 0,0
17.05.2019 21:00:00 13,3 8,3 0 0 - - N 1012,1 16 0,0
17.05.2019 20:00:00 13,9 7,2 0 0 - - N 1011,8 16 -
17.05.2019 19:00:00 13,9 7,8 8 4 - - N 1011,7 16 0,0
17.05.2019 18:00:00 13,9 7,8 13 7 - - WNW 1011,7 16 0,0
17.05.2019 17:00:00 14,4 7,2 13 7 - - NNW 1011,3 16 0,0
17.05.2019 16:00:00 14,4 7,2 11 6 - - NW 1011,1 16 0,0
17.05.2019 15:00:00 13,9 7,8 15 8 - - N 1010,7 16 0,3
17.05.2019 14:00:00 12,8 7,8 15 8 - - NNW 1010,3 16 0,3
17.05.2019 13:00:00 11,7 7,8 13 7 - - NW 1010,2 8 1,3
17.05.2019 12:00:00 11,7 7,8 21 11 - - W 1009,6 16 0,5
17.05.2019 11:00:00 11,1 7,8 16 9 - - W 1009,1 16 0,8
17.05.2019 10:00:00 11,1 7,2 18 10 - - WSW 1008,2 16 1,0
17.05.2019 09:00:00 10,6 7,8 11 6 - - WSW 1007,7 15 0,5
17.05.2019 08:00:00 10,6 7,2 11 6 - - W 1007,0 16 0,8
17.05.2019 07:00:00 10,6 7,8 9 5 - - WSW 1006,6 11 1,8
17.05.2019 06:00:00 10,6 8,3 0 0 - - N 1006,1 16 0,3
17.05.2019 05:00:00 11,1 8,9 0 0 - - N 1005,7 16 0,8
17.05.2019 04:00:00 11,1 8,3 0 0 - - N 1005,4 16 1,0
17.05.2019 03:00:00 12,2 6,7 8 4 - - SW 1004,9 10 0,5
17.05.2019 02:00:00 13,3 6,1 18 10 - - S 1004,1 16 -
17.05.2019 01:00:00 12,2 8,9 13 7 - - S 1004,2 16 -
17.05.2019 00:00:00 12,8 9,4 5 3 - - ESE 1004,5 16 -
16.05.2019 23:00:00 12,8 10,0 0 0 - - N 1004,1 16 -
16.05.2019 22:00:00 13,9 7,2 8 4 - - ESE 1003,3 16 -
16.05.2019 21:00:00 13,3 8,9 5 3 - - SW 1003,9 16 0,0
16.05.2019 20:00:00 14,4 8,3 11 6 - - WSW 1003,6 16 0,3
16.05.2019 19:00:00 13,9 8,3 11 6 - - SW 1003,1 16 0,0
16.05.2019 18:00:00 13,9 8,3 24 13 - - WSW 1002,8 16 0,0
16.05.2019 17:00:00 14,4 8,3 28 15 - - WSW 1003,0 16 0,3
16.05.2019 16:00:00 15,0 10,6 15 8 - - SW 1002,8 13 0,0
16.05.2019 15:00:00 15,6 10,0 15 8 - - W 1002,3 16 0,0
16.05.2019 14:00:00 13,3 9,4 15 8 - - W 1002,5 16 0,0
16.05.2019 13:00:00 13,9 11,1 31 17 - - WSW 1001,8 16 0,3
16.05.2019 12:00:00 12,8 10,0 37 20 48 26 W 1002,3 11 1,8
16.05.2019 11:00:00 15,0 11,7 16 9 - - SW 1001,5 16 0,0
16.05.2019 10:00:00 15,0 11,7 9 5 - - W 1001,3 16 0,0
16.05.2019 09:00:00 14,4 11,1 11 6 - - SW 1001,5 16 0,0
16.05.2019 08:00:00 13,3 11,1 0 0 - - N 1001,2 16 0,0
16.05.2019 07:00:00 12,8 10,0 0 0 - - N 1002,0 16 0,3
16.05.2019 06:00:00 13,3 9,4 15 8 - - W 1002,6 16 -
16.05.2019 05:00:00 13,3 9,4 22 12 - - W 1002,4 16 -
16.05.2019 04:00:00 13,3 10,0 21 11 - - W 1002,4 16 -
16.05.2019 03:00:00 13,3 10,6 13 7 - - WSW 1003,0 16 -
16.05.2019 02:00:00 13,9 10,6 8 4 - - NW 1003,4 16 -
16.05.2019 01:00:00 14,4 11,1 9 5 - - W 1004,3 16 0,0
16.05.2019 00:00:00 14,4 10,6 13 7 - - NW 1005,0 16 0,0
15.05.2019 23:00:00 15,6 11,7 21 11 - - W 1005,3 16 -
15.05.2019 22:00:00 15,6 12,2 9 5 - - W 1005,3 16 -
15.05.2019 21:00:00 16,1 11,1 8 4 - - NNW 1004,9 16 0,3
15.05.2019 20:00:00 17,8 10,6 0 0 - - N 1006,1 16 0,0
15.05.2019 19:00:00 17,8 11,7 5 3 - - NW 1006,0 16 0,0
15.05.2019 18:00:00 16,7 11,7 21 11 - - W 1007,0 16 0,3
15.05.2019 17:00:00 22,2 6,7 13 7 - - NNW 1005,5 16 -
15.05.2019 16:00:00 22,2 7,8 16 9 - - NNW 1005,9 16 0,0
15.05.2019 15:00:00 21,1 8,9 11 6 - - N 1006,7 16 0,0
15.05.2019 14:00:00 22,2 6,7 8 4 - - - 1007,5 16 -
15.05.2019 13:00:00 21,7 8,9 8 4 - - - 1008,7 16 -
15.05.2019 12:00:00 19,4 7,8 9 5 - - SW 1010,2 16 -
15.05.2019 11:00:00 19,4 7,8 0 0 - - N 1010,5 16 -
15.05.2019 10:00:00 18,3 7,8 0 0 - - N 1010,7 16 -
15.05.2019 09:00:00 15,6 7,8 9 5 - - WSW 1011,4 16 -
15.05.2019 08:00:00 15,0 7,2 9 5 - - WSW 1011,5 16 -
15.05.2019 07:00:00 15,0 6,7 9 5 - - NW 1011,2 16 -
15.05.2019 06:00:00 15,6 6,7 8 4 - - W 1011,7 16 -
15.05.2019 05:00:00 15,6 6,7 0 0 - - N 1011,7 16 -
15.05.2019 04:00:00 16,7 6,1 15 8 - - WNW 1011,8 16 -
15.05.2019 03:00:00 17,2 6,1 18 10 - - WNW 1012,1 16 -
15.05.2019 02:00:00 16,7 6,1 9 5 - - W 1012,2 16 -
15.05.2019 01:00:00 17,8 6,7 13 7 - - W 1012,3 16 -
15.05.2019 00:00:00 18,9 6,1 5 3 - - NNE 1011,9 16 0,0
14.05.2019 23:00:00 18,9 6,1 26 14 - - NW 1012,1 16 0,0
14.05.2019 22:00:00 21,1 6,1 29 16 - - NNW 1011,3 16 0,0
14.05.2019 21:00:00 23,3 5,0 5 3 - - WNW 1010,2 16 -
14.05.2019 20:00:00 25,0 4,4 0 0 - - N 1009,8 16 -
14.05.2019 19:00:00 25,6 3,9 9 5 - - N 1010,1 16 0,0
14.05.2019 18:00:00 26,7 2,8 24 13 - - WNW 1010,0 16 0,0
14.05.2019 17:00:00 28,3 2,8 21 11 - - NW 1009,2 16 -
14.05.2019 16:00:00 30,0 2,2 16 9 - - W 1009,3 16 -
14.05.2019 15:00:00 28,3 4,4 11 6 - - - 1010,0 16 -
14.05.2019 14:00:00 27,8 4,4 8 4 - - - 1010,5 16 -
14.05.2019 13:00:00 26,7 3,3 0 0 - - N 1011,3 16 -
14.05.2019 12:00:00 26,1 3,9 8 4 - - SSW 1012,0 16 -
14.05.2019 11:00:00 23,9 6,7 5 3 - - - 1011,9 16 -
14.05.2019 10:00:00 21,1 7,2 5 3 - - S 1012,0 16 -
14.05.2019 09:00:00 17,8 7,8 0 0 - - N 1011,7 16 -
14.05.2019 08:00:00 14,4 6,7 0 0 - - N 1011,3 16 -
14.05.2019 07:00:00 10,6 6,7 8 4 - - S 1010,9 16 -
14.05.2019 06:00:00 12,2 6,1 0 0 - - N 1010,4 16 -
14.05.2019 05:00:00 16,1 6,1 8 4 - - NW 1009,5 16 -
14.05.2019 04:00:00 15,6 6,1 9 5 - - WNW 1009,5 16 -
14.05.2019 03:00:00 16,1 6,1 9 5 - - WSW 1008,9 16 -
14.05.2019 02:00:00 17,2 7,8 5 3 - - SSW 1008,7 16 -
14.05.2019 01:00:00 18,9 6,7 5 3 - - NE 1008,6 16 -
14.05.2019 00:00:00 18,3 6,1 9 5 - - WSW 1008,1 16 -
13.05.2019 23:00:00 20,0 6,1 18 10 - - WSW 1007,7 16 -
13.05.2019 22:00:00 22,8 6,7 8 4 - - W 1006,9 16 -
13.05.2019 21:00:00 25,6 6,1 5 3 - - S 1006,6 16 -
13.05.2019 20:00:00 28,3 5,6 5 3 - - ESE 1006,3 16 -
13.05.2019 19:00:00 30,0 2,8 5 3 - - ENE 1006,5 16 -
13.05.2019 18:00:00 30,6 1,1 8 4 - - E 1006,7 16 -
13.05.2019 17:00:00 30,6 0,0 5 3 - - - 1007,0 16 -
13.05.2019 16:00:00 30,0 -1,7 0 0 - - N 1007,7 16 -
13.05.2019 15:00:00 30,6 0,0 8 4 - - - 1008,5 16 -
13.05.2019 14:00:00 29,4 2,8 0 0 - - N 1009,2 16 -
13.05.2019 13:00:00 27,2 5,6 11 6 - - S 1010,2 16 -

tt = temperature
td = dewpoint
ff = wind speed
fx = gusts
dd = wind direction
ppp = reduced air pressure
vv = visibility
rr = precipitation

Next stations